Tracking 31027 objects as of 18-Jul-2025
HD Live streaming from Space Station
objects crossing your sky now

COSMOS 1275 DEB

Track COSMOS 1275 DEB now!
10-day predictions


NORAD ID: 39947
Int'l Code: 1981-053NP
Perigee: 925.6 km
Apogee: 1,102.1 km
Inclination: 83.0 °
Period: 105.3 minutes
Semi major axis: 7384 km
RCS: 0.0065 m2 (small)
Launch date: April 25, 1981
Source: Commonwealth of Independent States (former USSR) (CIS)
Launch site: PLESETSK MISSILE AND SPACE COMPLEX (PKMTR)

Note: This is SATELLITE DEBRIS
Your satellite tracking list
Your tracking list is empty




NASA's NSSDC Master Catalog

Two Line Element Set (TLE):
1 39947U 81053NH  25199.01398221  .00000674  00000-0  73636-3 0  9996
2 39947  83.0112 214.1434 0119514  82.3282 307.2499 13.68021566552446
Source of the keplerian elements: AFSPC